Find Kosmos-627

NORAD ID: 7008 Int'l Des: 1973-109 Owner: VMF Country: SU operational
LEOCIRCULARPOLAR

Live Position

Loading 3D Globe...

About Kosmos-627

Description loading...

Upcoming Passes

Passes for default location (London). Set your location on the main map for personalized predictions.

Altitude History

Loading altitude history...

Two-Line Element Set

1 07008U 73109A 26104.93077802 .00000049 00000-0 36091-4 0 9990
2 07008 82.9559 168.3200 0032895 150.4377 23.2901 13.73073689619201
Epoch: Apr 14, 2026 • Age: 6 hours

Current Status

Altitude 1027.0 km
Velocity 7.33 km/s
Sub-Earth Point -81.29°S, 137.77°E
Type other

Most Searched